Regional Weather Roundup
Issued by NWS Cleveland, OH

Home | Current Version | Previous Version | Text Only | Print | Product List | Glossary On
Versions: 1 2 3 4 5 6 7 8 9 10 11 12 13 14 15 16 17 18 19 20 21 22 23 24 25 26 27 28 29 30 31 32 33 34 35 36 37 38 39 40 41 42 43 44 45 46 47 48 49 50
425
ASUS41 KCLE 131112
RWRCLE
OHIO REGIONAL WEATHER ROUNDUP
NATIONAL WEATHER SERVICE WILMINGTON, OH
600 AM EST SAT FEB 13 2016

NOTE: "FAIR" INDICATES FEW OR NO CLOUDS BELOW 12,000 FEET WITH NO
SIGNIFICANT WEATHER AND/OR OBSTRUCTIONS TO VISIBILITY.

OHZ001>008-015>018-024>027-034-035-043-044-131200-
   NORTHWEST OHIO

CITY           SKY/WX    TMP DP  RH WIND       PRES   REMARKS
DEFIANCE       FAIR       5  -6  60 W5        30.43R WCI  -4
FINDLAY        FAIR       5  -7  57 NW8       30.39R WCI  -8
TOLEDO EXPRESS FAIR       3  -8  60 W8        30.40R WCI -10
TOLEDO EXEC    FAIR       5  -8  55 NW13      30.42R WCI -12
LIMA           FAIR       5  -3  69 NW9       30.40R WCI  -9
$$

OHZ009>014-019>023-028>033-038-089-131200-
   NORTHEAST OHIO

CITY           SKY/WX    TMP DP  RH WIND       PRES   REMARKS
CLE-HOPKINS    FLURRIES   8  -4  58 NW17G24   30.34R WCI -10
CLE-LAKEFRONT  CLOUDY    12   0  58 NW26G37   30.31R WCI  -8
CUY CO. ARPT   NOT AVBL
LORAIN-ELYRIA  FLURRIES   7  -7  52 N16G28    30.34R WCI -11
ASHTABULA      LGT SNOW   8   1  73 NW14G25   30.22R WCI  -8
AKRON-CANTON   FAIR       3  -9  57 NW15      30.25R WCI -16
WOOSTER        FAIR       3  -4  72 NW12      30.29R WCI -13
MANSFIELD      FAIR       2  -9  60 NW10      30.30R WCI -14
YOUNGSTOWN     LGT SNOW   6   0  76 W13       30.20R WCI -10
$$

OHZ042-051>053-060>062-070>072-077>081-131200-
  SOUTHWEST OHIO

CITY           SKY/WX    TMP DP  RH WIND       PRES   REMARKS
CINC-COVINGTON MOCLDY    12   2  64 NW12      30.43R WCI  -2
CINC-LUNKEN    FAIR      13   4  67 NW7       30.48R WCI   3
HAMILTON       FAIR      11   3  70 NW9       30.46R WCI  -2
DAYTON         FAIR       7  -4  60 N13       30.42R WCI  -9
WRIGHT-PAT AFB PTCLDY    10  -4  52 NW13      30.42R WCI  -6
DAYTON GENERAL CLOUDY    11   1  64 NW9       30.41R WCI  -2
WILMINGTON     MOCLDY    10  -2  58 N13       30.39R WCI  -5
$$

OHZ036-037-039>041-045>050-054>059-063>069-073>076-082>088-131200-
  CENTRAL AND SOUTHEAST OHIO

CITY           SKY/WX    TMP DP  RH WIND       PRES   REMARKS
COLUMBUS       FAIR       7  -6  55 NW10      30.38R WCI  -8
OSU AIRPORT    FAIR       6  -4  63 NW7       30.38R WCI  -6
BOLTON FIELD   MOCLDY     6   0  74 NW6       30.39R WCI  -4
RICKENBACK AFB FAIR       8  -1  66 N9        30.40R WCI  -5
NEWARK         FAIR       7  -8  50 NW9       30.36R WCI  -7
MARION         FAIR       4  -8  57 NW8       30.37R WCI  -9
LANCASTER      FAIR       8  -3  61 NW7       30.38R WCI  -3
ZANESVILLE     FAIR      10  -8  44 W10G20    30.34R WCI  -4
NEW PHILLY     LGT SNOW   7  -1  70 NW12G20   30.32R WCI  -8
$$




USA.gov is the U.S. government's official web portal to all federal, state and local government web resources and services.